Regional Weather Roundup
Issued by NWS

Home | Current Version | Previous Version | Text Only | Print | Product List | Glossary Off
Versions: 1 2 3 4 5 6 7 8 9 10 11 12 13 14 15 16 17 18 19 20 21 22 23 24 25 26 27 28 29 30 31 32 33 34 35 36 37 38 39 40 41 42 43 44 45 46 47 48 49 50

000
ASUS43 KBIS 202220
RWRND

NORTH DAKOTA REGIONAL WEATHER ROUNDUP
NATIONAL WEATHER SERVICE BISMARCK ND
500 PM CDT SAT SEP 20 2014

NOTE: "FAIR" INDICATES FEW OR NO CLOUDS BELOW 12,000 FEET WITH NO
SIGNIFICANT WEATHER AND/OR OBSTRUCTIONS TO VISIBILITY.


NDZ001>003-009>011-017-202300-
NORTHWEST NORTH DAKOTA

CITY           SKY/WX    TMP DP  RH WIND       PRES   REMARKS
WILLISTON      SUNNY     72  35  25 NW22G37   30.07S
MINOT          SUNNY     70  37  29 W25G43    29.95S
MINOT AFB      SUNNY     70  38  30 NW30G43   29.93R
$$

NDZ018>021-031>035-040>046-202300-
SOUTHWEST NORTH DAKOTA

CITY           SKY/WX    TMP DP  RH WIND       PRES   REMARKS
BISMARCK       MOSUNNY   73  37  27 NW23G38   30.00S
DICKINSON      SUNNY     71  37  28 NW21G31   30.07R
GARRISON         N/A     71  36  27 NW26G35   29.99R
HETTINGER ARPT SUNNY     73  33  23 NW25G33   30.10R
$$

NDZ004>008-012>016-024-026-027-054-202300-
NORTHEAST NORTH DAKOTA

CITY           SKY/WX    TMP DP  RH WIND       PRES   REMARKS
GRAND FORKS    PTSUNNY   66  51  58 NW14G26   29.80S
GRND FRKS AFB  SUNNY     66  52  61 N18G25    29.81F
DEVILS LAKE    MOSUNNY   70  45  40 NW22G33   29.85R
$$

NDZ022-023-025-028>030-036>039-047>053-202300-
SOUTHEAST NORTH DAKOTA

CITY           SKY/WX    TMP DP  RH WIND       PRES   REMARKS
FARGO          MOSUNNY   67  50  54 NW25G35   29.83S
JAMESTOWN      PTSUNNY   69  46  43 NW22G31   29.89F
$$




USA.gov is the U.S. government's official web portal to all federal, state and local government web resources and services.